• In Denmark
  • List of Countries
  • For 7 days
  • Water Temperature
  • Satellite Maps
  • Weather Map
  • Weather Widgets
  • user-avatar
    Login

    Hourly Weather Patna

    Today, 16 July, Monday

    Time Temperature Precipitation Wind Pressure Humidity
    00:00 +36°C° 0 mm 5 mps 742 mmHg 56%
    01:00 +36°C° 0 mm 5 mps 742 mmHg 58%
    02:00 +35°C° 0 mm 6 mps 742 mmHg 60%
    03:00 +35°C° 0 mm 6 mps 742 mmHg 62%
    04:00 +34°C° 0 mm 6 mps 742 mmHg 63%
    05:00 +34°C° 0 mm 5 mps 742 mmHg 64%
    06:00 +33°C° 0 mm 4 mps 742 mmHg 68%
    07:00 +34°C° 0 mm 5 mps 742 mmHg 63%
    08:00 +35°C° 0 mm 6 mps 742 mmHg 59%
    09:00 +36°C° 0 mm 7 mps 742 mmHg 55%
    10:00 +39°C° 0 mm 7 mps 742 mmHg 51%
    11:00 +40°C° 0 mm 7 mps 742 mmHg 47%
    12:00 +41°C° 0 mm 7 mps 742 mmHg 43%
    13:00 +41°C° 0 mm 8 mps 741 mmHg 43%
    14:00 +43°C° 0 mm 8 mps 741 mmHg 42%
    15:00 +43°C° 0 mm 8 mps 740 mmHg 42%
    16:00 +43°C° 0 mm 7 mps 740 mmHg 41%
    17:00 +41°C° 0 mm 7 mps 739 mmHg 43%
    18:00 +39°C° 0 mm 6 mps 740 mmHg 49%
    19:00 +39°C° 0 mm 6 mps 741 mmHg 51%
    20:00 +38°C° 0 mm 6 mps 741 mmHg 52%
    21:00 +38°C° 0 mm 6 mps 742 mmHg 54%
    22:00 +36°C° 0 mm 6 mps 742 mmHg 55%
    23:00 +36°C° 0 mm 6 mps 742 mmHg 57%

    Tomorrow, 17 July, Tuesday

    Time Temperature Precipitation Wind Pressure Humidity
    00:00 +35°C° 0 mm 6 mps 742 mmHg 58%
    01:00 +35°C° 0 mm 6 mps 742 mmHg 59%
    02:00 +35°C° 0 mm 6 mps 742 mmHg 60%
    03:00 +34°C° 0 mm 6 mps 742 mmHg 61%
    04:00 +34°C° 0 mm 6 mps 742 mmHg 63%
    05:00 +33°C° 0 mm 6 mps 742 mmHg 65%
    06:00 +33°C° 0 mm 6 mps 742 mmHg 66%
    07:00 +34°C° 0 mm 7 mps 742 mmHg 65%
    08:00 +34°C° 0 mm 7 mps 742 mmHg 63%
    09:00 +35°C° 0 mm 7 mps 743 mmHg 61%
    10:00 +36°C° 0 mm 7 mps 742 mmHg 59%
    11:00 +36°C° 0 mm 7 mps 742 mmHg 56%
    12:00 +38°C° 0 mm 7 mps 742 mmHg 53%
    13:00 +39°C° 0 mm 7 mps 741 mmHg 51%
    14:00 +39°C° 0 mm 7 mps 741 mmHg 49%
    15:00 +40°C° 0 mm 7 mps 740 mmHg 47%
    16:00 +40°C° 0 mm 7 mps 740 mmHg 47%
    17:00 +40°C° 0 mm 7 mps 739 mmHg 48%
    18:00 +40°C° 0 mm 7 mps 739 mmHg 49%
    19:00 +39°C° 0.1 mm 7 mps 740 mmHg 51%
    20:00 +38°C° 0.1 mm 7 mps 740 mmHg 54%
    21:00 +38°C° 0.1 mm 7 mps 741 mmHg 56%
    22:00 +36°C° 0.2 mm 6 mps 741 mmHg 58%
    23:00 +36°C° 0.2 mm 6 mps 741 mmHg 60%

    Day after tomorrow, 18 July, Wednesday

    Time Temperature Precipitation Wind Pressure Humidity
    00:00 +35°C° 0.2 mm 6 mps 742 mmHg 63%
    01:00 +35°C° 0.1 mm 6 mps 742 mmHg 64%
    02:00 +34°C° 0.1 mm 6 mps 741 mmHg 66%
    03:00 +34°C° 0.1 mm 6 mps 741 mmHg 67%
    04:00 +34°C° 0.2 mm 6 mps 741 mmHg 69%
    05:00 +33°C° 0.2 mm 5 mps 741 mmHg 70%
    06:00 +33°C° 0.2 mm 5 mps 742 mmHg 71%
    07:00 +34°C° 0 mm 6 mps 742 mmHg 67%
    08:00 +35°C° 0 mm 6 mps 742 mmHg 63%
    09:00 +36°C° 0 mm 7 mps 743 mmHg 59%
    10:00 +38°C° 0 mm 7 mps 743 mmHg 56%
    11:00 +39°C° 0 mm 7 mps 743 mmHg 52%
    12:00 +40°C° 0 mm 7 mps 742 mmHg 49%
    13:00 +40°C° 0 mm 7 mps 742 mmHg 47%
    14:00 +41°C° 0 mm 7 mps 741 mmHg 45%
    15:00 +41°C° 0 mm 6 mps 740 mmHg 44%
    16:00 +41°C° 0 mm 6 mps 740 mmHg 44%
    17:00 +41°C° 0 mm 6 mps 740 mmHg 44%
    18:00 +41°C° 0 mm 5 mps 740 mmHg 45%
    19:00 +40°C° 0 mm 5 mps 740 mmHg 47%
    20:00 +40°C° 0 mm 5 mps 741 mmHg 49%
    21:00 +39°C° 0 mm 5 mps 741 mmHg 51%
    22:00 +39°C° 0.2 mm 5 mps 741 mmHg 53%
    23:00 +37°C° 0.2 mm 5 mps 741 mmHg 55%

    19 July, Thursday

    Time Temperature Precipitation Wind Pressure Humidity
    00:00 +36°C° 0.2 mm 5 mps 742 mmHg 57%
    01:00 +36°C° 0.2 mm 5 mps 741 mmHg 59%
    02:00 +36°C° 0.2 mm 4 mps 741 mmHg 61%
    03:00 +35°C° 0.2 mm 4 mps 741 mmHg 63%
    04:00 +35°C° 0 mm 4 mps 741 mmHg 64%
    05:00 +34°C° 0 mm 4 mps 741 mmHg 66%
    06:00 +34°C° 0 mm 5 mps 741 mmHg 67%
    07:00 +35°C° 0 mm 5 mps 741 mmHg 63%
    08:00 +36°C° 0 mm 5 mps 742 mmHg 58%
    09:00 +37°C° 0 mm 5 mps 742 mmHg 54%
    10:00 +39°C° 0 mm 5 mps 742 mmHg 50%
    11:00 +41°C° 0 mm 5 mps 742 mmHg 46%
    12:00 +42°C° 0 mm 5 mps 742 mmHg 42%
    13:00 +42°C° 0 mm 5 mps 741 mmHg 42%
    14:00 +42°C° 0 mm 5 mps 740 mmHg 42%
    15:00 +42°C° 0 mm 5 mps 740 mmHg 42%
    16:00 +42°C° 0 mm 5 mps 739 mmHg 42%
    17:00 +42°C° 0 mm 5 mps 739 mmHg 42%
    18:00 +42°C° 0 mm 5 mps 739 mmHg 42%
    19:00 +41°C° 0 mm 4 mps 740 mmHg 44%
    20:00 +40°C° 0 mm 4 mps 740 mmHg 45%
    21:00 +39°C° 0 mm 3 mps 740 mmHg 47%
    22:00 +38°C° 0 mm 4 mps 740 mmHg 49%
    23:00 +38°C° 0 mm 4 mps 741 mmHg 50%

    20 July, Friday

    Time Temperature Precipitation Wind Pressure Humidity
    00:00 +38°C° 0 mm 4 mps 741 mmHg 52%
    01:00 +37°C° 0.1 mm 4 mps 740 mmHg 54%
    02:00 +36°C° 0.1 mm 3 mps 740 mmHg 56%
    03:00 +36°C° 0.1 mm 3 mps 740 mmHg 58%
    04:00 +36°C° 0.1 mm 3 mps 740 mmHg 59%
    05:00 +35°C° 0.1 mm 3 mps 740 mmHg 60%
    06:00 +35°C° 0.1 mm 3 mps 740 mmHg 61%
    07:00 +36°C° 0 mm 3 mps 741 mmHg 58%
    08:00 +37°C° 0 mm 4 mps 741 mmHg 54%
    09:00 +39°C° 0 mm 5 mps 741 mmHg 50%
    10:00 +40°C° 0 mm 5 mps 741 mmHg 47%
    11:00 +41°C° 0 mm 5 mps 741 mmHg 43%
    12:00 +42°C° 0 mm 5 mps 741 mmHg 40%
    13:00 +42°C° 0 mm 5 mps 740 mmHg 40%
    14:00 +42°C° 0 mm 4 mps 739 mmHg 39%
    15:00 +42°C° 0 mm 4 mps 739 mmHg 39%
    16:00 +42°C° 0 mm 4 mps 739 mmHg 39%
    17:00 +42°C° 0 mm 4 mps 738 mmHg 38%
    18:00 +42°C° 0 mm 3 mps 738 mmHg 38%
    19:00 +42°C° 0 mm 3 mps 739 mmHg 40%
    20:00 +40°C° 0 mm 3 mps 740 mmHg 42%
    21:00 +40°C° 0 mm 3 mps 740 mmHg 43%
    22:00 +39°C° 0 mm 3 mps 740 mmHg 46%
    23:00 +39°C° 0 mm 3 mps 740 mmHg 48%

    21 July, Saturday

    Time Temperature Precipitation Wind Pressure Humidity
    00:00 +38°C° 0 mm 3 mps 740 mmHg 50%
    01:00 +37°C° 0.1 mm 2 mps 740 mmHg 52%
    02:00 +37°C° 0.1 mm 2 mps 740 mmHg 54%
    03:00 +37°C° 0.1 mm 2 mps 739 mmHg 56%
    04:00 +36°C° 0.2 mm 2 mps 739 mmHg 58%
    05:00 +36°C° 0.2 mm 2 mps 740 mmHg 59%
    06:00 +36°C° 0.2 mm 2 mps 740 mmHg 61%
    07:00 +36°C° 0.3 mm 2 mps 740 mmHg 58%
    08:00 +37°C° 0.3 mm 2 mps 741 mmHg 56%
    09:00 +38°C° 0.3 mm 2 mps 741 mmHg 53%
    10:00 +38°C° 0.3 mm 2 mps 741 mmHg 50%
    11:00 +39°C° 0.3 mm 2 mps 741 mmHg 48%
    12:00 +40°C° 0.3 mm 2 mps 741 mmHg 45%
    13:00 +40°C° 0 mm 2 mps 740 mmHg 43%
    14:00 +41°C° 0 mm 2 mps 740 mmHg 42%
    15:00 +41°C° 0 mm 2 mps 739 mmHg 41%
    16:00 +41°C° 0 mm 2 mps 739 mmHg 41%
    17:00 +41°C° 0 mm 2 mps 739 mmHg 41%
    18:00 +41°C° 0 mm 2 mps 738 mmHg 41%
    19:00 +40°C° 0.1 mm 2 mps 739 mmHg 43%
    20:00 +40°C° 0.1 mm 3 mps 739 mmHg 45%
    21:00 +39°C° 0.1 mm 3 mps 740 mmHg 48%
    22:00 +38°C° 1.3 mm 4 mps 740 mmHg 52%
    23:00 +37°C° 1.3 mm 4 mps 740 mmHg 55%
    Show more